Flag for U.S.A. Weather past 2 weeks in Fort Collins, Colorado, U.S.A.

Now
68 °F

Clear.


Feels Like: 68 °F
Forecast: 56 / 85 °F
Wind: 7 mph from East

Location: Fort Collins-Loveland Municipal Airport

Current Time: Aug 20, 2014 at 10:26:27 PM

Latest Report: Aug 20, 2014 at 9:55 PM


Visibility: 10 mi

Pressure: 29.99 "Hg

Humidity: 49%

Dew point: 48 °F

Location of Fort CollinsLocation

Historic Weather in Fort Collins — Graph

°F

Fort Collins temperature yesterday

Maximum temperature yesterday: 88 °F (at 4:15 PM)
Minimum temperature yesterday: 55 °F (at 4:35 AM)
Average temperature yesterday: 71 °F

Past Weeks' High & Low Weather Summary

 TemperatureHumidityPressure
High93 °F (Aug 16, 2:55 PM)88% (Aug 6, 1:55 AM)30.37 "Hg (Aug 6, 1:55 AM)
Low54 °F (Aug 8, 5:35 AM)15% (Aug 17, 2:15 PM)29.87 "Hg (Aug 19, 5:35 PM)
Average72 °F50%30.13 "Hg
* Reported Aug 5 9:35 PM — Aug 20 9:35 PM, Fort Collins, Weather by CustomWeather, © 2014

Note: Actual official high and low records may vary slightly from our data, if they occured in-between our weather recording intervals... More about our weather records

Advertising

Fort Collins weather history for previous 24 hours

 ConditionsComfort  
Time TempWeatherWind HumidityBarometerVisibility
9:35 PM
Aug 20
70 °FClear.6 mph46%29.98 "Hg10 mi
9:15 PM70 °FClear.7 mph46%29.97 "Hg10 mi
8:55 PM72 °FPassing clouds.7 mph47%29.96 "Hg10 mi
8:35 PM72 °FPassing clouds.9 mph50%29.95 "Hg10 mi
8:15 PM72 °FSunny.12 mph50%29.94 "Hg10 mi
7:55 PM73 °FPassing clouds.12 mph47%29.94 "Hg10 mi
7:35 PM75 °FScattered clouds.10 mph44%29.93 "Hg10 mi
7:15 PM73 °FPassing clouds.9 mph50%29.93 "Hg10 mi
6:55 PM75 °FScattered clouds.9 mph47%29.92 "Hg10 mi
6:35 PM79 °FPassing clouds.15 mph37%29.91 "Hg10 mi
5:55 PM82 °FSunny.18 mph30%29.90 "Hg10 mi
5:35 PM86 °FSunny.14 mph29%29.89 "Hg10 mi
5:15 PM86 °FSunny.12 mph29%29.88 "Hg10 mi
4:55 PM88 °FSunny.12 mph27%29.87 "Hg10 mi
4:35 PM90 °FSunny.9 mph27%29.87 "Hg10 mi
4:15 PM90 °FSunny.12 mph26%29.87 "Hg10 mi
3:55 PM88 °FSunny.5 mph27%29.87 "Hg10 mi
3:35 PM90 °FSunny.7 mph27%29.88 "Hg10 mi
2:55 PM90 °FSunny.12 mph27%29.88 "Hg10 mi
2:35 PM88 °FSunny.14 mph29%29.88 "Hg8 mi
2:15 PM88 °FSunny.No wind25%29.90 "Hg8 mi
1:55 PM88 °FSunny.3 mph27%29.90 "Hg5 mi
1:35 PM88 °FSunny.3 mph29%29.91 "Hg2 mi
1:15 PM84 °FSunny.3 mph31%29.90 "Hg9 mi
12:55 PM84 °FSunny.7 mph31%29.91 "Hg10 mi
12:35 PM84 °FSunny.No wind33%29.91 "Hg9 mi
11:55 AM82 °FSunny.10 mph35%29.93 "Hg4 mi
11:35 AM82 °FSunny.No wind37%29.93 "Hg9 mi
11:15 AM81 °FSunny.6 mph39%29.93 "Hg10 mi
10:55 AM81 °FSunny.8 mph39%29.93 "Hg10 mi
10:35 AM79 °FSunny.5 mph39%29.94 "Hg10 mi
10:15 AM77 °FSunny.8 mph44%29.94 "Hg10 mi
9:55 AM75 °FSunny.7 mph47%29.94 "Hg10 mi
9:35 AM75 °FSunny.8 mph47%29.94 "Hg10 mi
9:15 AM73 °FSunny.8 mph50%29.94 "Hg10 mi
8:55 AM72 °FSunny.7 mph53%29.93 "Hg10 mi
8:35 AM72 °FSunny.12 mph53%29.93 "Hg10 mi
7:55 AM66 °FSunny.3 mph68%29.93 "Hg10 mi
7:35 AM66 °FSunny.3 mph64%29.93 "Hg10 mi
7:15 AM63 °FSunny.No wind73%29.92 "Hg10 mi
6:55 AM61 °FClear.No wind77%29.92 "Hg10 mi
6:35 AM61 °FClear.3 mph77%29.92 "Hg10 mi
5:55 AM63 °FClear.3 mph73%29.92 "Hg10 mi
5:35 AM63 °FClear.3 mph73%29.91 "Hg10 mi
5:15 AM64 °FPassing clouds.6 mph68%29.91 "Hg10 mi
4:55 AM64 °FPassing clouds.6 mph68%29.90 "Hg10 mi
4:35 AM64 °FPassing clouds.7 mph68%29.90 "Hg10 mi
4:15 AM64 °FPassing clouds.6 mph68%29.91 "Hg10 mi
3:55 AM64 °FPassing clouds.5 mph64%29.91 "Hg10 mi
3:35 AM66 °FPassing clouds.5 mph60%29.91 "Hg10 mi
3:15 AM66 °FPassing clouds.6 mph64%29.91 "Hg10 mi
2:55 AM66 °FPassing clouds.5 mph64%29.92 "Hg10 mi
2:35 AM64 °FPassing clouds.6 mph68%29.91 "Hg10 mi
2:15 AM64 °FClear.No wind68%29.91 "Hg10 mi
1:55 AM63 °FClear.6 mph73%29.92 "Hg10 mi
1:35 AM63 °FClear.3 mph68%29.93 "Hg10 mi
1:15 AM63 °FClear.No wind68%29.92 "Hg10 mi
12:55 AM66 °FClear.No wind60%29.92 "Hg10 mi
12:35 AM66 °FPassing clouds.8 mph60%29.93 "Hg10 mi
11:55 PM
Aug 19
70 °FClear.8 mph57%29.92 "Hg10 mi
11:35 PM68 °FClear.7 mph56%29.92 "Hg10 mi
11:15 PM72 °FClear.7 mph50%29.92 "Hg10 mi
10:55 PM70 °FClear.5 mph53%29.92 "Hg10 mi
10:35 PM70 °FClear.6 mph57%29.92 "Hg10 mi
10:15 PM70 °FPassing clouds.6 mph53%29.93 "Hg10 mi
Weather by CustomWeather, © 2014

See weather overviewHow to use our weather pages